Weather History for Cavalier, ND

Change the Weather History Date:

Wednesday, December 5, 2012

  Actual Average (KGAF) Record (KGAF)
Temperature  
Mean Temperature 22 °F -  
Max Temperature 37 °F 25 °F 46 °F (1988)
Min Temperature 12 °F 7 °F -22 °F (1964)
Degree Days  
Heating Degree Days 43    
Moisture  
Dew Point 18 °F    
Average Humidity 78    
Maximum Humidity 86    
Minimum Humidity 69    
Precipitation  
Precipitation 0.00 in - - ()
Sea Level Pressure  
Sea Level Pressure 29.89 in    
Wind  
Wind Speed 15 mph (South)    
Max Wind Speed 28 mph    
Max Gust Speed 37 mph    
Visibility 10 miles    
Events Snow    
Averages and records for this station are not official NWS values.
T = Trace of Precipitation, MM = Missing Value Source: NWS Daily Summary

Daily Weather History Graph

Daily Weather History Graph

Search for Another Location

Airport:

Trip Planner

Search our weather history database for the weather conditions in past years. The results will help you decide how hot, cold, wet, or windy it might be!

Date:

Astronomy

Dec. 05, 2012 Rise Set
Actual Time 8:07 AM CST 4:34 PM CST
Civil Twilight 7:31 AM CST 5:11 PM CST
Nautical Twilight 6:51 AM CST 5:51 PM CST
Astronomical Twilight 6:13 AM CST 6:29 PM CST
Moon 11:52 PM CST (12/5) 12:08 PM CST (12/5)
Length of Visible Light 9h 40m
Length of Day
8h 26m
Waning Gibbous, 59% of the Moon is Illuminated
Dec 5
Waning Gibbous
Dec 6
Last Quarter
Dec 13
New
Dec 19
First Quarter
Dec 28
Full

Hourly Weather History & Observations

Time (CST) Temp. Windchill Dew Point Humidity Pressure Visibility Wind Dir Wind Speed Gust Speed Precip Events Conditions
12:15 AM 12.2 °F 2.9 °F 8.6 °F 85% 30.34 in 10.0 mi SE 5.8 mph - N/A   Clear
12:35 AM 12.2 °F 1.7 °F 8.6 °F 85% 30.34 in 10.0 mi SSE 6.9 mph - N/A   Clear
12:55 AM 12.2 °F 2.9 °F 8.6 °F 85% 30.31 in 10.0 mi SSE 5.8 mph - N/A   Clear
1:15 AM 14.0 °F 2.9 °F 10.4 °F 86% 30.31 in 10.0 mi SSE 8.1 mph - N/A   Clear
1:35 AM 14.0 °F 2.9 °F 10.4 °F 86% 30.30 in 10.0 mi SSE 8.1 mph - N/A   Clear
1:55 AM 14.0 °F 0.5 °F 10.4 °F 86% 30.29 in 10.0 mi SSE 11.5 mph - N/A   Clear
2:15 AM 14.0 °F -0.2 °F 10.4 °F 86% 30.28 in 10.0 mi SSE 12.7 mph - N/A   Clear
2:35 AM 14.0 °F 2.9 °F 10.4 °F 86% 30.26 in 10.0 mi SSE 8.1 mph 16.1 mph N/A   Mostly Cloudy
2:55 AM 14.0 °F -0.2 °F 10.4 °F 86% 30.26 in 10.0 mi SSE 12.7 mph - N/A   Partly Cloudy
3:15 AM 14.0 °F -0.8 °F 10.4 °F 86% 30.26 in 10.0 mi South 13.8 mph - N/A   Clear
3:35 AM 14.0 °F -0.8 °F 10.4 °F 86% 30.25 in 10.0 mi South 13.8 mph 17.3 mph N/A   Mostly Cloudy
3:55 AM 14.0 °F -0.2 °F 10.4 °F 86% 30.23 in 10.0 mi SSE 12.7 mph 17.3 mph N/A   Overcast
4:15 AM 14.0 °F -1.4 °F 10.4 °F 86% 30.21 in 10.0 mi SSE 15.0 mph 19.6 mph N/A   Mostly Cloudy
4:35 AM 15.8 °F 0.9 °F 10.4 °F 79% 30.20 in 10.0 mi SSE 15.0 mph 19.6 mph N/A   Overcast
4:55 AM 15.8 °F 0.9 °F 12.2 °F 86% 30.18 in 10.0 mi SSE 15.0 mph 21.9 mph N/A   Overcast
5:15 AM 15.8 °F 1.4 °F 12.2 °F 86% 30.16 in 10.0 mi SSE 13.8 mph 24.2 mph N/A   Mostly Cloudy
5:35 AM 15.8 °F 0.9 °F 12.2 °F 86% 30.15 in 10.0 mi SSE 15.0 mph 19.6 mph N/A   Clear
5:55 AM 15.8 °F 2.7 °F 12.2 °F 86% 30.13 in 10.0 mi SSE 11.5 mph 18.4 mph N/A   Clear
6:15 AM 15.8 °F 1.4 °F 12.2 °F 86% 30.13 in 10.0 mi SSE 13.8 mph 21.9 mph N/A   Clear
6:35 AM 15.8 °F 0.9 °F 12.2 °F 86% 30.13 in 10.0 mi South 15.0 mph 21.9 mph N/A   Clear
6:55 AM 15.8 °F 1.4 °F 12.2 °F 86% 30.13 in 10.0 mi South 13.8 mph 19.6 mph N/A   Clear
8:35 AM 17.6 °F 2.2 °F 14.0 °F 86% 30.05 in 10.0 mi SSE 17.3 mph 25.3 mph N/A   Clear
8:55 AM 17.6 °F 1.7 °F 14.0 °F 86% 30.05 in 10.0 mi SSE 18.4 mph 25.3 mph N/A   Clear
9:15 AM 17.6 °F 2.2 °F 14.0 °F 86% 30.03 in 10.0 mi SSE 17.3 mph 25.3 mph N/A   Clear
9:35 AM 19.4 °F 4.5 °F 14.0 °F 80% 30.01 in 10.0 mi South 17.3 mph 25.3 mph N/A   Clear
9:55 AM 19.4 °F 3.2 °F 14.0 °F 80% 30.00 in 10.0 mi South 20.7 mph 27.6 mph N/A   Clear
10:15 AM 19.4 °F 3.6 °F 15.8 °F 86% 29.99 in 10.0 mi South 19.6 mph 31.1 mph N/A   Clear
10:35 AM 21.2 °F 5.6 °F 15.8 °F 80% 29.98 in 10.0 mi South 20.7 mph 28.8 mph N/A   Clear
10:55 AM 23.0 °F 6.6 °F 15.8 °F 74% 29.95 in 10.0 mi South 25.3 mph 35.7 mph N/A Snow Light Snow
11:15 AM 23.0 °F 7.6 °F 17.6 °F 80% 29.94 in 10.0 mi South 21.9 mph 32.2 mph N/A   Clear
11:35 AM 24.8 °F 10.0 °F 17.6 °F 74% 29.92 in 10.0 mi South 21.9 mph 34.5 mph N/A Snow Light Snow
11:55 AM 24.8 °F 9.3 °F 17.6 °F 74% 29.89 in 10.0 mi South 24.2 mph 34.5 mph N/A Snow Light Snow
12:15 PM 26.6 °F 11.1 °F 17.6 °F 69% 29.87 in 10.0 mi South 26.5 mph 36.8 mph N/A Snow Light Snow
12:35 PM 26.6 °F 10.8 °F 17.6 °F 69% 29.85 in 10.0 mi South 27.6 mph 36.8 mph N/A Snow Light Snow
12:55 PM 26.6 °F 11.1 °F 19.4 °F 74% 29.83 in 10.0 mi South 26.5 mph 35.7 mph N/A   Partly Cloudy
1:15 PM 26.6 °F 12.0 °F 19.4 °F 74% 29.83 in 10.0 mi South 23.0 mph 29.9 mph N/A   Scattered Clouds
1:35 PM 26.6 °F 11.7 °F 19.4 °F 74% 29.81 in 9.0 mi South 24.2 mph 34.5 mph N/A Snow Light Snow
1:55 PM 28.4 °F 14.1 °F 19.4 °F 69% 29.80 in 10.0 mi South 24.2 mph 32.2 mph N/A Snow Light Snow
2:15 PM 28.4 °F 14.7 °F 19.4 °F 69% 29.78 in 10.0 mi South 21.9 mph 28.8 mph N/A   Partly Cloudy
2:35 PM 28.4 °F 14.4 °F 19.4 °F 69% 29.77 in 10.0 mi South 23.0 mph 32.2 mph N/A Snow Light Snow
2:55 PM 28.4 °F 13.5 °F 19.4 °F 69% 29.74 in 10.0 mi South 26.5 mph 32.2 mph N/A Snow Light Snow
3:15 PM 28.4 °F 15.1 °F 19.4 °F 69% 29.74 in 10.0 mi South 20.7 mph 28.8 mph N/A   Clear
3:35 PM 28.4 °F 14.1 °F 19.4 °F 69% 29.73 in 10.0 mi South 24.2 mph 32.2 mph N/A Snow Light Snow
3:55 PM 28.4 °F 15.1 °F 19.4 °F 69% 29.72 in 10.0 mi South 20.7 mph 32.2 mph N/A   Clear
4:15 PM 28.4 °F 15.1 °F 21.2 °F 74% 29.71 in 10.0 mi South 20.7 mph 28.8 mph N/A   Clear
4:35 PM 28.4 °F 15.4 °F 21.2 °F 74% 29.70 in 10.0 mi South 19.6 mph 24.2 mph N/A   Clear
4:55 PM 28.4 °F 15.1 °F 21.2 °F 74% 29.69 in 10.0 mi South 20.7 mph 27.6 mph N/A   Scattered Clouds
5:15 PM 30.2 °F 17.1 °F 23.0 °F 75% 29.67 in 10.0 mi South 21.9 mph 28.8 mph N/A   Mostly Cloudy
5:35 PM 30.2 °F 17.4 °F 23.0 °F 75% 29.66 in 10.0 mi South 20.7 mph 26.5 mph N/A   Mostly Cloudy
5:55 PM 30.2 °F 16.2 °F 23.0 °F 75% 29.65 in 10.0 mi South 25.3 mph 32.2 mph N/A   Mostly Cloudy
6:15 PM 30.2 °F 15.9 °F 23.0 °F 75% 29.64 in 10.0 mi South 26.5 mph 29.9 mph N/A   Partly Cloudy
6:35 PM 30.2 °F 17.1 °F 23.0 °F 75% 29.64 in 10.0 mi South 21.9 mph 29.9 mph N/A   Mostly Cloudy
6:55 PM 32.0 °F 19.5 °F 23.0 °F 69% 29.62 in 10.0 mi South 21.9 mph 31.1 mph N/A   Partly Cloudy
7:15 PM 32.0 °F 19.5 °F 23.0 °F 69% 29.59 in 10.0 mi South 21.9 mph 29.9 mph N/A   Clear
7:35 PM 32.0 °F 20.1 °F 23.0 °F 69% 29.62 in 10.0 mi South 19.6 mph 26.5 mph N/A   Scattered Clouds
7:55 PM 32.0 °F 21.2 °F 23.0 °F 69% 29.62 in 10.0 mi SSW 16.1 mph 26.5 mph N/A   Mostly Cloudy
8:15 PM 32.0 °F 20.8 °F 24.8 °F 75% 29.61 in 10.0 mi South 17.3 mph - N/A   Mostly Cloudy
8:35 PM 32.0 °F 20.5 °F 24.8 °F 75% 29.59 in 10.0 mi South 18.4 mph 25.3 mph N/A   Mostly Cloudy
8:55 PM 32.0 °F 21.2 °F 24.8 °F 75% 29.60 in 10.0 mi South 16.1 mph - N/A   Mostly Cloudy
9:15 PM 32.0 °F 21.6 °F 24.8 °F 75% 29.59 in 10.0 mi South 15.0 mph - N/A   Partly Cloudy
9:35 PM 32.0 °F 21.6 °F 24.8 °F 75% 29.58 in 10.0 mi South 15.0 mph - N/A   Partly Cloudy
9:55 PM 32.0 °F 22.1 °F 24.8 °F 75% 29.57 in 10.0 mi South 13.8 mph - N/A   Partly Cloudy
10:15 PM 32.0 °F 22.1 °F 26.6 °F 80% 29.57 in 10.0 mi South 13.8 mph - N/A   Scattered Clouds
10:35 PM 32.0 °F 22.1 °F 26.6 °F 80% 29.55 in 10.0 mi South 13.8 mph - N/A   Mostly Cloudy
10:55 PM 32.0 °F 22.1 °F 26.6 °F 80% 29.54 in 10.0 mi SSW 13.8 mph - N/A   Partly Cloudy
11:15 PM 32.0 °F 22.1 °F 26.6 °F 80% 29.53 in 10.0 mi South 13.8 mph - N/A   Clear
11:35 PM 32.0 °F 23.0 °F 26.6 °F 80% 29.53 in 10.0 mi SSW 11.5 mph - N/A   Clear
11:55 PM 37.4 °F 27.8 °F 28.4 °F 70% 29.52 in 10.0 mi WSW 17.3 mph 24.2 mph N/A   Clear